Fort Covington, New York, United States (12937)
Lat: 44.99N, Lon: 74.5W
Wx Zone: NYZ027
Local Info
Past Weather Observations for Tuesday, November 18, 2014

NOTE: This archive is for the closest National Weather Service station to Fort Covington. Information may differ from the station used for current weather conditions.

Click here for Long-term Archive

Time Weather Temperature Dewpoint Humidity Pressure Winds Precip Visibility
23:58
Overcast
Light Snow
23°F / -5°C 18°F / -8°C 80% 29.74 in
(1007 mb)
W 15 mph
(W 24 kph)
0.00 in
(0.00 mm)
1 1/2SM
23:53
Overcast
Snow
23°F / -5°C 19°F / -7°C 86% 29.74 in
(1007 mb)
W 17.3 mph
(W 28 kph)
0.00 in
(0.00 mm)
1/2SM
23:47
Overcast
Light Snow
25°F / -4°C 18°F / -8°C 74% 29.74 in
(1007 mb)
WNW 18.4 mph
(WNW 30 kph)
0.00 in
(0.00 mm)
3/4SM
23:45
Overcast
Light Snow
25°F / -4°C 19°F / -7°C 80% 29.74 in
(1007 mb)
WNW 24.2 mph
(WNW 39 kph)
0.00 in
(0.00 mm)
1 1/2SM
23:30
Overcast
Light Snow
25°F / -4°C 19°F / -7°C 80% 29.71 in
(1006 mb)
SSW 15 mph
(SSW 24 kph)
0.00 in
(0.00 mm)
4SM
23:20
Overcast
Light Snow
25°F / -4°C 18°F / -8°C 74% 29.71 in
(1006 mb)
SSW 23 mph
(SSW 37 kph)
0.00 in
(0.00 mm)
5SM
22:53
Overcast
27°F / -3°C 18°F / -8°C 69% 29.68 in
(1005 mb)
SSW 23 mph
(SSW 37 kph)
0.00 in
(0.00 mm)
10SM
21:53
Overcast
Light Snow
27°F / -3°C 18°F / -8°C 69% 29.65 in
(1004 mb)
SSW 19.6 mph
(SSW 32 kph)
0.00 in
(0.00 mm)
7SM
21:42
Overcast
Light Snow
27°F / -3°C 18°F / -8°C 69% 29.65 in
(1004 mb)
SW 20.7 mph
(SW 33 kph)
0.00 in
(0.00 mm)
8SM
21:33
Overcast
Light Snow
27°F / -3°C 18°F / -8°C 69% 29.65 in
(1004 mb)
SW 23 mph
(SW 37 kph)
0.00 in
(0.00 mm)
8SM
20:53
Overcast
Light Snow
27°F / -3°C 16°F / -9°C 64% 29.65 in
(1004 mb)
SW 24.2 mph
(SW 39 kph)
0.00 in
(0.00 mm)
8SM
19:53
Overcast
25°F / -4°C 18°F / -8°C 74% 29.65 in
(1004 mb)
SW 18.4 mph
(SW 30 kph)
- 10SM
18:53
Overcast
25°F / -4°C 16°F / -9°C 69% 29.65 in
(1004 mb)
SSE 13.8 mph
(SSE 22 kph)
- 10SM
17:53
Clear
25°F / -4°C 12°F / -11°C 59% 29.65 in
(1004 mb)
SW 23 mph
(SW 37 kph)
- 10SM
16:53
Clear
25°F / -4°C 12°F / -11°C 59% 29.65 in
(1004 mb)
SW 18.4 mph
(SW 30 kph)
- 10SM
15:53
Mostly Cloudy
27°F / -3°C 16°F / -9°C 64% 29.62 in
(1003 mb)
SW 21.9 mph
(SW 35 kph)
- 10SM
14:53
Mostly Cloudy
27°F / -3°C 18°F / -8°C 69% 29.62 in
(1003 mb)
SSE 19.6 mph
(SSE 32 kph)
- 10SM
13:53
Partly Cloudy
27°F / -3°C 12°F / -11°C 54% 29.59 in
(1002 mb)
SW 27.6 mph
(SW 44 kph)
- 10SM
12:53
Clear
28°F / -2°C 9°F / -13°C 43% 29.59 in
(1002 mb)
SW 29.9 mph
(SW 48 kph)
- 10SM
11:53
Clear
27°F / -3°C 7°F / -14°C 43% 29.59 in
(1002 mb)
SSW 25.3 mph
(SSW 41 kph)
- 10SM
10:53
Clear
27°F / -3°C 7°F / -14°C 43% 29.62 in
(1003 mb)
SSW 20.7 mph
(SSW 33 kph)
- 10SM
09:53
Clear
25°F / -4°C 7°F / -14°C 46% 29.59 in
(1002 mb)
SSW 25.3 mph
(SSW 41 kph)
- 10SM
08:53
Clear
25°F / -4°C 7°F / -14°C 46% 29.59 in
(1002 mb)
SSW 20.7 mph
(SSW 33 kph)
- 10SM
07:53
Clear
23°F / -5°C 10°F / -12°C 58% 29.59 in
(1002 mb)
SW 19.6 mph
(SW 32 kph)
- 10SM
06:53
Clear
23°F / -5°C 10°F / -12°C 58% 29.56 in
(1001 mb)
SW 13.8 mph
(SW 22 kph)
- 10SM
05:53
Clear
25°F / -4°C 10°F / -12°C 54% 29.56 in
(1001 mb)
SSW 12.7 mph
(SSW 20 kph)
- 10SM
04:53
Clear
25°F / -4°C 12°F / -11°C 59% 29.56 in
(1001 mb)
SSW 20.7 mph
(SSW 33 kph)
- 10SM
03:53
Clear
27°F / -3°C 16°F / -9°C 64% 29.53 in
(1000 mb)
SSW 20.7 mph
(SSW 33 kph)
- 10SM
02:53
Mostly Cloudy
30°F / -1°C 16°F / -9°C 55% 29.5 in
(999 mb)
SSW 19.6 mph
(SSW 32 kph)
- 10SM
01:53
Partly Cloudy
32°F / 0°C 23°F / -5°C 69% 29.5 in
(999 mb)
SSW 21.9 mph
(SSW 35 kph)
- 10SM
01:43
Partly Cloudy
34°F / 1°C 25°F / -4°C 70% 29.47 in
(998 mb)
SSW 16.1 mph
(SSW 26 kph)
- 10SM
00:53
Mostly Cloudy
34°F / 1°C 28°F / -2°C 81% 29.47 in
(998 mb)
SW 11.5 mph
(SW 19 kph)
- 10SM
Time Weather Temperature Dewpoint Humidity Pressure Winds Precip Visibility


Weather for websites

WeatherForYou.com, LLC is not responsible for any damages or problems caused by this service. Current weather conditions are obtained from the closest station including government and personal stations which may have varying degrees of accuracy. Weather forecasts are derived from the NOAA NDFD. Like all things, this site belongs to Jesus Christ... He just trusts me to maintain it. If you have any questions or comments email webmaster@weatherforyou.com

Copyright © 2014, WeatherForYou.com LLC. All rights reserved.